Regional Weather Roundup
Issued by NWS

Home | Current Version | Previous Version | Graphics & Text | Print | Product List | Glossary On
Versions: 1 2 3 4 5 6 7 8 9 10 11 12 13 14 15 16 17 18 19 20 21 22 23 24 25 26 27 28 29 30 31 32 33 34 35 36 37 38 39 40 41 42 43 44 45 46 47 48 49 50
000
ASUS45 KTFX 290304
RWRMT
MONTANA HOURLY WEATHER ROUNDUP
NATIONAL WEATHER SERVICE GREAT FALLS MT
804 PM MST SUN DEC 28 2014

NOTE: "FAIR" INDICATES FEW OR NO CLOUDS BELOW 12000 FEET WITH NO
SIGNIFICANT WEATHER AND/OR OBSTRUCTIONS TO VISIBILITY.

* THESE STATIONS ARE NOT UNDER NWS QUALITY CONTROL. THEY DO NOT
   REPORT WEATHER SUCH AS PRECIPITATION OR FOG.

MTZ001>007-043-290400-
WEST OF THE DIVIDE
CITY           SKY/WX    TMP DP  RH WIND       PRES   REMARKS
KALISPELL      CLOUDY    19  10  68 N26G33    30.21R WCI   1
MISSOULA       CLOUDY    21  10  62 SE17      30.16R WCI   7
BUTTE          LGT SNOW  10   3  73 N14       30.06R VSB 2    WCI  -6
MULLAN PASS    SNOW      19  16  88 VRB6      29.93R VSB 1/2  WCI  11
* ESSEX        N/A       12   1  61 SE6G13     N/A   WCI   2
* LINCOLN      N/A       10   1  67 E12G21     N/A   WCI  -5
* LOOKOUT PASS N/A       23  22  96 W1         N/A
* POLSON       N/A       20  17  88 NE1        N/A
* RONAN APT    MOCLDY    23  21  92 N/A        N/A
* SEELEY LAKE  N/A       12   5  73 S1         N/A
* THOMP F APT  CLOUDY    11   7  84 N5         N/A   WCI   2
$$

MTZ008-052>055-290400-
SOUTHWEST MONTANA
CITY           SKY/WX    TMP DP  RH WIND       PRES   REMARKS
BOZEMAN        LGT SNOW  14  10  84 S10       30.12R WCI   1
DILLON         FOG       14  10  84 NE21      30.02R WCI  -4
* W YELLOWSTON PTCLDY    14  11  88 SW3G8      N/A
* THREE FORKS  CLOUDY    16  16 100 N11        N/A   WCI   3
* BOULDER HILL N/A        6   1  80 N17G22     N/A   WCI -13
* MONIDA PASS  N/A       11   9  92 SE9        N/A   WCI  -2
* RAYNOLDS PAS N/A        9   9 100 VRB15      N/A   WCI  -8
* WHITEHALL    N/A       13   2  61 NE14G24    N/A   WCI  -2
* WISE RIVER   N/A       14   7  73 SE13G18    N/A
$$

MTZ009>010-012-014-046-048-049-054-290400-
EAST SLOPES AND CENTRAL MONTANA
CITY           SKY/WX    TMP DP  RH WIND       PRES   REMARKS
CUT BANK       LGT SNOW   7   1  76 N22       30.34R VSB 3/4  WCI -14
GREAT FALLS    LGT SNOW   9   7  91 N15       30.31R VSB 1 1/4 WCI  -8
HELENA         LGT SNOW  12   7  80 NW12      30.26R VSB 3    WCI  -2
* DEARBORN     N/A       13   6  73 N/A        N/A
* EAST GLACIER N/A        4   0  83 E7         N/A   WCI  -8
* MONARCH      N/A        4  -1  79 NW7        N/A   WCI  -8
* PENDROY      N/A        7   6  96 VRB23G28    N/A   WCI -14
* ROGERS PASS  N/A        5   1  83 E4G12      N/A
* SWEET GRASS  N/A        4   1  87 N/A        N/A
$$

MTZ011-013-016-021-035-040-045-047-050-051-290400-
NORTH CENTRAL MONTANA
CITY           SKY/WX    TMP DP  RH WIND       PRES   REMARKS
HAVRE          LGT SNOW  10   7  88 NE14      30.40R WCI  -6
LEWISTOWN      LGT SNOW  12   9  88 NW12      30.23R WCI  -2
* N BAR RANCH  HAZE      12   7  80 N12G20    30.20R WCI  -2
* CHESTER      N/A       10   3  73 NE13G20    N/A   WCI  -5
* DENTON       N/A       11   8  88 NW17       N/A   WCI  -6
* GEYSER       N/A       10   7  88 W17        N/A   WCI  -8
* JUDITH GAP   N/A       10   9  96 N26        N/A   WCI -11
* LOMA         N/A       12   7  80 N14G19     N/A   WCI  -4
$$

MTZ017>020-022>027-061-062-290400-
NORTHEAST MONTANA
CITY           SKY/WX    TMP DP  RH WIND       PRES   REMARKS
GLASGOW        CLOUDY     7  -2  66 NE12      30.40R WCI  -9
GLENDIVE       CLOUDY    10   5  80 NE15G21   30.30R WCI  -7
JORDAN         CLOUDY    12   7  80 NE15      30.30R WCI  -4
SIDNEY         CLOUDY     7   0  73 N13       30.40R WCI  -9
WOLF POINT     CLOUDY     7  -2  66 NE14      30.43R WCI -10
* BEAVER HILL  N/A        8   5  87 N12G17     N/A   WCI  -7
* CIRCLE       N/A        7   1  76 NE12       N/A   WCI  -9
* LINDSAY DVD  N/A        8   5  87 N12G17     N/A   WCI  -7
* NAVAJO       N/A       -8 -13  78 N11        N/A   WCI -27
* SACO         N/A        8  -1  66 VRB11      N/A   WCI  -7
$$

MTZ028>042-056>058-290400-
SOUTHCENTRAL AND SOUTHEAST MONTANA
CITY           SKY/WX    TMP DP  RH WIND       PRES   REMARKS
BAKER          LGT SNOW  12   7  80 E15       30.20R VSB 2 1/2 WCI  -4
BILLINGS       LGT SNOW  16  12  84 N13       30.20R VSB 1 1/2 WCI   2
LIVINGSTON     LGT SNOW  16  10  77 E16       30.12R VSB 2 1/2 WCI   1
MILES CITY     LGT SNOW  16  10  77 NE17G23   30.23R VSB 1 1/4
* LAUREL APT   CLOUDY    18   7  62 N/A        N/A
* ROUNDUP APT  CLOUDY    16   9  74 N15G20     N/A   WCI   1
* ALZADA       N/A       17  14  88 E9         N/A   WCI   6
* HYSHAM       N/A       11   8  88 NE10G16    N/A   WCI  -2
* REED POINT   N/A       17  15  92 N1         N/A
* ROSCOE HILL  N/A       12   8  84 VRB7       N/A   WCI   1
$$

REGIONAL REPORTS...DAKOTAS
CITY           SKY/WX    TMP DP  RH WIND       PRES   REMARKS
WILLISTON      CLOUDY     3  -2  79 N15       30.41R WCI -16
DICKINSON      LGT SNOW   7   1  76 NE14      30.26R VSB 2 1/2 WCI -10
BEACH          LGT SNOW   9   5  84 NE12      30.27R WCI  -6
CROSBY         CLEAR     -8 -11  86 NW12      30.45R WCI -28
WATFORD CITY   CLOUDY     5   0  80 NE6       30.35R WCI  -6
BISMARCK       CLOUDY     1  -2  87 NE10      30.39R WCI -15
GRAND FORKS    CLEAR     -9 -13  82 N5        30.47R WCI -21
FARGO          CLEAR     -2  -9  72 N10       30.45R WCI -18
BUFFALO SD     PTCLDY    18  12  77 E16       30.08R WCI   3
RAPID CITY     LGT SNOW  18  12  77 N8        30.10R VSB 1 1/4 WCI   8
$$

REGIONAL REPORTS...WYOMING/IDAHO/WASHINGTON
CITY           SKY/WX    TMP DP  RH WIND       PRES   REMARKS
GILLETTE       LGT SNOW  19  18  96 N6        30.00R VSB 2 1/2 WCI  11
SHERIDAN       LGT SNOW  19  16  88 NW23G32   30.08R VSB 3/4  WCI   2
CODY           CLOUDY    16  10  77 N14       30.05R WCI   2
YELLOWSTONE LA MOCLDY    10   7  88 CALM      29.91R
SALMON         MOCLDY    18  14  84 CALM      30.04R
MULLAN PASS    SNOW      19  16  88 VRB6      29.93S VSB 1/2  WCI  11
SAND POINT     CLOUDY    30  25  82 N16G22    30.13R WCI  19
SPOKANE        LGT SNOW  28  27  96 CALM      30.09R

$$




USA.gov is the U.S. government's official web portal to all federal, state and local government web resources and services.